Back to catalog

STARLINK-36039

AliveCommunicationsVLEO
NORAD 66612·PAYLOAD·🇺🇸 United States

Launched Nov 22, 2025 from Cape Canaveral Space Force Station

Loading…

Next Passes (next 24 hours)

TLE

FreshSource: CelesTrak SupGP

Epoch: Sep 14, 2026, 23:23 UTC

1 66612C 25270AA  26257.97479167  .00052319  00000+0  18937-2 0  2575
2 66612  43.0027  67.3782 0001774 268.8655  50.0492 15.27573799    17

Track STARLINK-36039 in real time with AllMySat

Download on the App Store